Regional Weather Roundup
Issued by NWS Northern Indiana

Home | Current Version | Previous Version | Graphics & Text | Print | Product List | Glossary On
Versions: 1 2 3 4 5 6 7 8 9 10 11 12 13 14 15 16 17 18 19 20 21 22 23 24 25 26 27 28 29 30 31 32 33 34 35 36 37 38 39 40 41 42 43 44 45 46 47 48 49 50
000
ASUS43 KIWX 181610
RWRIWX

KIWX WEATHER ROUNDUP
NATIONAL WEATHER SERVICE NORTHERN INDIANA
1200 PM EDT THU SEP 18 2014

NOTE: "FAIR" INDICATES FEW OR NO CLOUDS BELOW 12,000 FEET WITH NO
SIGNIFICANT WEATHER AND/OR OBSTRUCTIONS TO VISIBILITY.

* THESE STATIONS ARE NOT UNDER NWS QUALITY CONTROL. THEY ALSO MAY NOT
  REPORT WEATHER SUCH AS PRECIPITATION OR FOG.

INZ001>027-181700-
NORTHERN INDIANA

CITY           SKY/WX    TMP DP  RH WIND       PRES   REMARKS
GARY*          MOSUNNY   66  48  52 NE9       30.15F
VALPARAISO     SUNNY     65  46  50 E8        30.15F
MICHIGAN CITY* SUNNY     64  45  48 E3        30.15F
LAPORTE*       SUNNY     63  46  54 E6        30.16F
KNOX*          SUNNY     64  48  56 E8        30.15S
SOUTH BEND     SUNNY     65  45  48 E3        30.16S
ELKHART*       SUNNY     64  46  52 CALM      30.16S
GOSHEN         SUNNY     65  49  56 NE6       30.15F
MONTICELLO*    SUNNY     65  49  56 NE9       30.12S
LOGANSPORT*    SUNNY     63  50  63 NE6       30.14S
ROCHESTER*     SUNNY     68  46  45 NE9       30.14F
WARSAW*        SUNNY     64  50  59 E7        30.15F
ANGOLA*        SUNNY     66  45  45 CALM      30.15R
FORT WAYNE     SUNNY     63  50  62 E6        30.15F
HUNTINGTON*    SUNNY     65  52  63 E6        30.14F
MARION*        SUNNY     64  51  60 E7        30.13F

$$
INZ028>050-181700-
CENTRAL INDIANA

CITY           SKY/WX    TMP DP  RH WIND       PRES   REMARKS
LAFAYETTE      SUNNY     63  50  62 NE13      30.12S
KOKOMO*        SUNNY     63  52  67 E9        30.13S
MUNCIE*        SUNNY     67  47  48 E7        30.12F
INDIANAPOLIS   MOSUNNY   66  48  52 E7        30.10S

$$
MIZ043>046-050>051-056>058-064>065-071>073-077>080-181700-
SOUTHWEST LOWER MICHIGAN

CITY           SKY/WX    TMP DP  RH WIND       PRES   REMARKS
BATTLE CREEK   SUNNY     63  52  67 E6        30.17R
BENTON HARBOR    N/A    N/A N/A N/A MISG      30.15S
COLDWATER*     SUNNY     65  47  51 N5        30.16R
HILLSDALE*     SUNNY     64  47  53 CALM      30.15S
HOLLAND        MOSUNNY   65  52  62 E5        30.17S
GRAND RAPIDS   PTSUNNY   61  54  77 E5        30.18R
KALAMAZOO      MOSUNNY   64  49  57 CALM      30.17R
STURGIS*       SUNNY     64  52  63 N3        30.15S
THREE RIVERS*  FAIR      64  48  56 CALM      30.16S

$$
OHZ001>008-015>018-024>025-181700-
NORTHWEST OHIO

CITY           SKY/WX    TMP DP  RH WIND       PRES   REMARKS
WAUSEON*       FAIR      66  46  48 CALM      30.14S
DEFIANCE       SUNNY     67  48  50 NE5       30.15R
FINDLAY        SUNNY     68  48  48 NE6       30.13R
TOLEDO EXPRESS SUNNY     66  49  54 VRB3      30.14R
TOLEDO METCALF MOSUNNY   67  53  61 VRB3      30.14S
LIMA           MOSUNNY   67  48  50 NE6       30.14R

$$
&&



USA.gov is the U.S. government's official web portal to all federal, state and local government web resources and services.